SWR268A LSZH-LHBP

Flight info

Callsign SWR268A
Flight time N/A
Altitude 29000
Route DEGES Z2 TUNUM/N0428F350 Z209 BIRGI DCT SETAL DCT GOTAR DCT SIRDU DCT OGVUN DCT VAJDI
Aircraft A320/M-SDE3FGHIRWY/LB1

Departure

Time N/A
Airport Zürich Airport (LSZH)

Arrival

Time 2026-05-06 16:26
Airport Budapest Liszt Ferenc International Airport (LHBP)
Time Latitude Longitude Altitude Speed Heading
2026-05-06 15:37 47.31565 11.08472 30815 ft 431 kts 109°
2026-05-06 15:38 47.30330 11.17082 30793 ft 432 kts 109°
2026-05-06 15:38 47.29081 11.25733 30784 ft 432 kts 109°
2026-05-06 15:39 47.27825 11.34389 30781 ft 432 kts 109°
2026-05-06 15:39 47.26647 11.43083 30777 ft 436 kts 104°
2026-05-06 15:40 47.26470 11.52044 30778 ft 443 kts 90°
2026-05-06 15:40 47.27652 11.60990 30777 ft 451 kts 76°
2026-05-06 15:41 47.29655 11.69700 30779 ft 452 kts 75°
2026-05-06 15:41 47.31689 11.78502 30780 ft 452 kts 75°
2026-05-06 15:42 47.33574 11.87310 30781 ft 450 kts 80°
2026-05-06 15:42 47.34518 11.96300 30788 ft 442 kts 93°
2026-05-06 15:43 47.34367 12.05280 30798 ft 437 kts 100°
2026-05-06 15:43 47.33950 12.14220 30802 ft 437 kts 99°
2026-05-06 15:44 47.33553 12.23123 30804 ft 437 kts 99°
2026-05-06 15:44 47.33164 12.32072 30804 ft 438 kts 99°
2026-05-06 15:45 47.32773 12.41047 30804 ft 438 kts 99°
2026-05-06 15:45 47.32379 12.49942 30805 ft 437 kts 99°
2026-05-06 15:46 47.31978 12.58897 30805 ft 437 kts 99°
2026-05-06 15:46 47.31572 12.67805 30779 ft 437 kts 100°
2026-05-06 15:47 47.31160 12.76739 30739 ft 437 kts 100°
2026-05-06 15:47 47.30738 12.85680 30714 ft 437 kts 100°
2026-05-06 15:48 47.30309 12.94620 30706 ft 441 kts 100°
2026-05-06 15:48 47.30084 12.99154 30704 ft 453 kts 100°
2026-05-06 15:48 47.29850 13.03833 30704 ft 464 kts 99°
2026-05-06 15:49 47.29368 13.13481 30703 ft 484 kts 99°
2026-05-06 15:49 47.28859 13.23568 30703 ft 501 kts 99°
2026-05-06 15:50 47.28329 13.33942 30701 ft 514 kts 99°
2026-05-06 15:50 47.27786 13.44428 30699 ft 517 kts 99°
2026-05-06 15:51 47.27226 13.55004 30705 ft 517 kts 99°
2026-05-06 15:51 47.26658 13.65509 30729 ft 516 kts 99°
2026-05-06 15:52 47.26078 13.76074 30762 ft 516 kts 99°
2026-05-06 15:52 47.25494 13.86505 30796 ft 515 kts 99°
2026-05-06 15:53 47.24893 13.96995 30827 ft 514 kts 99°
2026-05-06 15:53 47.24281 14.07492 30848 ft 514 kts 99°
2026-05-06 15:54 47.23665 14.17933 30856 ft 514 kts 99°
2026-05-06 15:54 47.22929 14.28318 30859 ft 511 kts 103°
2026-05-06 15:55 47.21825 14.38580 30860 ft 510 kts 104°
2026-05-06 15:55 47.20667 14.48894 30860 ft 510 kts 104°
2026-05-06 15:56 47.19508 14.59141 30860 ft 510 kts 103°
2026-05-06 15:56 47.18343 14.69422 30859 ft 510 kts 104°
2026-05-06 15:57 47.17172 14.79704 30859 ft 510 kts 104°
2026-05-06 15:57 47.15997 14.89906 30859 ft 509 kts 104°
2026-05-06 15:58 47.14806 15.00160 30860 ft 509 kts 104°
2026-05-06 15:58 47.13608 15.10374 30860 ft 509 kts 104°
2026-05-06 15:59 47.12393 15.20655 30860 ft 508 kts 104°
2026-05-06 15:59 47.11176 15.30875 30860 ft 508 kts 104°
2026-05-06 16:00 47.09950 15.41073 30860 ft 508 kts 104°
2026-05-06 16:00 47.08713 15.51295 30860 ft 508 kts 104°
2026-05-06 16:01 47.07474 15.61449 30860 ft 508 kts 104°
2026-05-06 16:01 47.06225 15.71626 30859 ft 508 kts 105°
2026-05-06 16:02 47.04962 15.81835 30860 ft 508 kts 105°
2026-05-06 16:02 47.03697 15.91950 30860 ft 507 kts 105°
2026-05-06 16:03 47.02408 16.02144 30860 ft 507 kts 104°
2026-05-06 16:03 47.01157 16.12299 30860 ft 510 kts 101°
2026-05-06 16:04 47.00935 16.22712 30880 ft 516 kts 88°
2026-05-06 16:04 47.02254 16.33011 30919 ft 520 kts 74°
2026-05-06 16:05 47.04597 16.43048 30955 ft 520 kts 71°
2026-05-06 16:05 47.07013 16.53015 30664 ft 521 kts 71°
2026-05-06 16:06 47.08209 16.58036 30366 ft 521 kts 71°
2026-05-06 16:06 47.09399 16.63086 29936 ft 522 kts 71°
2026-05-06 16:06 47.10585 16.68148 29421 ft 521 kts 72°
2026-05-06 16:06 47.11583 16.72434 28980 ft 521 kts 72°
2026-05-06 16:07 47.12740 16.77424 28461 ft 521 kts 72°
2026-05-06 16:07 47.13904 16.82458 27930 ft 521 kts 72°
2026-05-06 16:07 47.15064 16.87481 27398 ft 521 kts 72°
2026-05-06 16:07 47.16214 16.92478 26815 ft 517 kts 72°
2026-05-06 16:08 47.17370 16.97499 25987 ft 517 kts 72°
2026-05-06 16:08 47.18507 17.02453 25258 ft 519 kts 72°
2026-05-06 16:08 47.19664 17.07506 24571 ft 519 kts 72°
2026-05-06 16:08 47.20813 17.12531 23926 ft 518 kts 72°
2026-05-06 16:09 47.21945 17.17502 23349 ft 514 kts 72°
2026-05-06 16:09 47.23072 17.22465 22799 ft 509 kts 72°
2026-05-06 16:09 47.24179 17.27349 22256 ft 505 kts 72°
2026-05-06 16:09 47.25276 17.32198 21723 ft 501 kts 72°
2026-05-06 16:10 47.26425 17.37056 21199 ft 497 kts 71°
2026-05-06 16:10 47.27618 17.41795 20692 ft 492 kts 70°
2026-05-06 16:10 47.28803 17.46439 20146 ft 485 kts 71°
2026-05-06 16:10 47.29980 17.51073 19606 ft 481 kts 71°
2026-05-06 16:11 47.31140 17.55682 19090 ft 477 kts 71°
2026-05-06 16:11 47.32270 17.60206 18582 ft 473 kts 71°
2026-05-06 16:11 47.33400 17.64757 18075 ft 469 kts 71°
2026-05-06 16:11 47.34495 17.69198 17577 ft 465 kts 72°
2026-05-06 16:12 47.35592 17.73657 17036 ft 462 kts 72°
2026-05-06 16:12 47.36692 17.78134 16486 ft 459 kts 72°
2026-05-06 16:12 47.37746 17.82517 15943 ft 455 kts 75°
2026-05-06 16:12 47.38389 17.87054 15399 ft 449 kts 86°
2026-05-06 16:13 47.38480 17.91560 14870 ft 444 kts 94°
2026-05-06 16:13 47.38388 17.96098 14329 ft 440 kts 95°
2026-05-06 16:13 47.38260 18.00621 13785 ft 438 kts 95°
2026-05-06 16:13 47.38136 18.05063 13262 ft 435 kts 95°
2026-05-06 16:14 47.38021 18.09506 12743 ft 433 kts 95°
2026-05-06 16:14 47.37915 18.13925 12230 ft 430 kts 95°
2026-05-06 16:14 47.37811 18.18331 11714 ft 428 kts 95°
2026-05-06 16:14 47.37711 18.22658 11181 ft 426 kts 95°
2026-05-06 16:15 47.37703 18.27059 10646 ft 426 kts 88°
2026-05-06 16:15 47.38308 18.31335 10132 ft 429 kts 73°
2026-05-06 16:15 47.39383 18.35394 9960 ft 429 kts 69°
2026-05-06 16:15 47.40559 18.39473 9882 ft 430 kts 68°
2026-05-06 16:16 47.41723 18.43495 9544 ft 426 kts 69°
2026-05-06 16:16 47.42862 18.47484 9069 ft 416 kts 69°
2026-05-06 16:16 47.43946 18.51323 8629 ft 398 kts 70°
2026-05-06 16:16 47.44966 18.54979 8224 ft 368 kts 69°
2026-05-06 16:17 47.45891 18.58319 7839 ft 344 kts 70°
2026-05-06 16:17 47.46777 18.61498 7502 ft 321 kts 70°
2026-05-06 16:17 47.47595 18.64452 7207 ft 309 kts 71°
2026-05-06 16:17 47.48397 18.67366 6922 ft 303 kts 72°
2026-05-06 16:18 47.49182 18.70230 6646 ft 297 kts 73°
2026-05-06 16:18 47.49952 18.73052 6346 ft 293 kts 71°
2026-05-06 16:18 47.50722 18.75900 6015 ft 302 kts 70°
2026-05-06 16:18 47.51520 18.78766 5675 ft 300 kts 71°
2026-05-06 16:19 47.52294 18.81571 5373 ft 296 kts 72°
2026-05-06 16:19 47.53062 18.84366 5235 ft 292 kts 71°
2026-05-06 16:19 47.53825 18.87123 5148 ft 288 kts 66°
2026-05-06 16:19 47.54890 18.89569 4823 ft 275 kts 47°
2026-05-06 16:20 47.56223 18.91494 4548 ft 264 kts 44°
2026-05-06 16:20 47.57586 18.93240 4302 ft 259 kts 44°
2026-05-06 16:20 47.58870 18.95051 4053 ft 250 kts 61°
2026-05-06 16:20 47.59362 18.97321 3944 ft 224 kts 99°
2026-05-06 16:21 47.58860 18.99429 3856 ft 209 kts 131°
2026-05-06 16:21 47.57983 19.01013 3747 ft 196 kts 139°
2026-05-06 16:21 47.57057 19.02481 3680 ft 198 kts 139°
2026-05-06 16:21 47.56087 19.03993 3614 ft 201 kts 139°
2026-05-06 16:22 47.55152 19.05473 3393 ft 198 kts 137°
2026-05-06 16:22 47.54244 19.06937 3225 ft 188 kts 138°
2026-05-06 16:22 47.53368 19.08349 2942 ft 183 kts 137°
2026-05-06 16:22 47.52511 19.09734 2669 ft 184 kts 137°
2026-05-06 16:23 47.51659 19.11106 2418 ft 180 kts 136°
2026-05-06 16:23 47.50832 19.12447 2154 ft 173 kts 137°
2026-05-06 16:23 47.50045 19.13721 1920 ft 162 kts 138°
2026-05-06 16:23 47.49289 19.14939 1741 ft 156 kts 136°
2026-05-06 16:24 47.48580 19.16085 1522 ft 145 kts 136°
2026-05-06 16:24 47.47918 19.17155 1287 ft 143 kts 138°
2026-05-06 16:24 47.47229 19.18201 1169 ft 142 kts 137°
2026-05-06 16:24 47.46574 19.19285 977 ft 145 kts 134°
2026-05-06 16:25 47.45905 19.20421 761 ft 148 kts 139°
2026-05-06 16:25 47.45201 19.21537 588 ft 147 kts 134°
2026-05-06 16:25 47.44532 19.22633 446 ft 135 kts 138°
2026-05-06 16:25 47.43998 19.23479 442 ft 88 kts 135°
2026-05-06 16:26 47.43714 19.24017 435 ft 55 kts 110°
2026-05-06 16:26 47.43596 19.24525 438 ft 49 kts 122°
2026-05-06 16:26 47.43460 19.24760 445 ft 17 kts 133°
2026-05-06 16:26 47.43383 19.24880 450 ft 14 kts 129°
2026-05-06 16:27 47.43324 19.24979 454 ft 11 kts 131°
2026-05-06 16:27 47.43306 19.25093 456 ft 12 kts 74°
2026-05-06 16:27 47.43356 19.25187 459 ft 11 kts 41°
2026-05-06 16:27 47.43411 19.25276 462 ft 12 kts 73°
2026-05-06 16:28 47.43375 19.25378 463 ft 11 kts 133°
2026-05-06 16:28 47.43319 19.25466 464 ft 11 kts 133°
2026-05-06 16:28 47.43335 19.25621 465 ft 20 kts 42°
2026-05-06 16:28 47.43434 19.25754 468 ft 17 kts 44°
2026-05-06 16:29 47.43520 19.25869 472 ft 15 kts 41°
2026-05-06 16:29 47.43594 19.25968 474 ft 14 kts 42°
2026-05-06 16:29 47.43652 19.26079 474 ft 14 kts 93°
2026-05-06 16:29 47.43591 19.26194 475 ft 14 kts 135°
2026-05-06 16:30 47.43570 19.26230 476 ft 0 kts 130°
2026-05-06 16:30 47.43564 19.26240 476 ft 5 kts 133°
2026-05-06 16:30 47.43527 19.26241 476 ft 3 kts 192°
2026-05-06 16:30 47.43518 19.26238 476 ft 0 kts 191°
2026-05-06 16:31 47.43513 19.26237 476 ft 0 kts 172°
2026-05-06 16:31 47.43520 19.26278 477 ft 8 kts 71°
2026-05-06 16:31 47.43503 19.26310 477 ft 5 kts 201°
2026-05-06 16:31 47.43465 19.26266 476 ft 8 kts 222°
2026-05-06 16:32 47.43451 19.26247 476 ft 1 kts 222°
2026-05-06 16:32 47.43449 19.26244 476 ft 0 kts 222°